Location: Hains Lake
(37.8540°N, 99.8578°W)
Time: 22:17:34
(UTC+00:00)

Vanguard 2 Rocket - Pass Details

Date: 20 April 2021
Orbit: 553 x 3326 km, 32.9° (Epoch: 05 May)

Event Time Altitude Azimuth Distance (km) Brightness Sun altitude
Rises 23:03:21 0° 271° (W) 7,121 12.8 25.9°
Reaches altitude 10° 23:07:58 10° 270° (W) 6,224 13.1 25.0°
Maximum altitude 23:28:22 72° 191° (S) 3,173 10.0 21.0°
Drops below altitude 10° 23:43:41 10° 111° (ESE) 4,861 10.1 18.0°
Sets 23:46:48 0° 109° (ESE) 5,560 10.3 17.3°
